GFSSGP_sfc_temp_009.txt.gz
Temp
79 89 95 91 75 77 72 78 86 77 72 78 82 79 76 77 71 62 82 84 84 84 85 82 73 74 74 75 75 75 76 76 76 75 75 75 75 75 74 74 75 76 76 76 76 76 75 74 73
93 93 92 86 71 69 74 84 78 74 74 82 81 80 77 72 81 77 79 85 86 83 83 82 73 74 74 74 75 75 75 76 75 75 75 75 75 74 74 74 74 75 76 76 76 75 74 73 72
90 93 83 78 74 70 73 81 79 80 83 81 75 81 77 75 80 82 85 86 85 83 83 79 73 73 74 74 74 74 74 74 74 75 75 75 74 74 74 74 75 75 75 75 75 74 73 72 71
89 88 85 73 71 79 79 79 80 80 81 82 79 71 78 82 83 82 85 87 83 82 80 72 72 73 74 74 74 73 73 73 73 74 74 74 74 74 73 73 74 74 74 74 74 73 72 71 71
91 87 74 72 74 80 83 77 84 78 77 80 82 71 73 80 84 86 85 83 78 73 73 76 69 71 74 74 74 73 72 72 73 73 73 73 73 73 73 73 73 73 73 73 73 72 72 71 71
81 85 71 69 74 80 84 84 77 74 76 77 78 76 76 84 85 84 78 73 70 70 74 75 71 72 73 73 72 71 71 72 72 72 72 73 72 72 72 72 72 72 72 72 72 72 71 71 71
78 78 72 75 75 77 81 86 72 73 74 71 80 72 78 82 86 84 73 66 71 67 74 74 78 77 70 69 70 70 70 71 71 71 71 71 71 72 72 72 72 72 72 72 72 72 71 71 70
84 81 73 76 74 71 83 82 85 81 79 86 86 70 71 82 83 79 75 75 74 70 75 79 80 79 78 75 69 69 70 70 70 71 71 71 71 72 72 72 72 71 71 71 71 70 70 70 70
87 74 71 75 72 69 84 80 85 87 80 80 74 83 82 83 83 80 76 75 74 76 77 79 80 80 78 76 74 71 70 70 70 72 71 72 82 83 81 71 71 71 70 70 70 70 69 69 69
78 72 76 80 79 73 77 81 76 80 76 76 76 84 84 83 79 76 76 74 76 75 78 79 79 78 80 83 80 82 82 84 83 83 82 85 82 82 82 75 71 71 70 71 71 71 70 69 84
79 72 79 75 84 83 80 80 85 71 74 81 78 78 80 81 76 76 78 83 83 80 78 79 79 80 83 82 84 85 83 82 82 81 83 81 83 81 83 82 83 83 74 83 80 81 83 80 80
74 80 81 82 83 82 79 85 75 63 60 73 85 83 84 80 77 79 80 82 80 79 79 81 83 81 81 84 85 85 84 84 83 83 82 80 81 78 78 80 79 81 83 81 81 82 80 80 80
76 79 80 80 82 83 84 80 80 80 84 86 84 82 82 81 82 83 85 86 84 81 80 82 82 80 81 82 82 82 79 79 81 81 78 79 79 74 75 70 70 75 81 81 80 81 80 79 79
80 79 77 81 80 82 79 80 81 79 85 82 81 82 82 82 83 84 84 83 83 83 81 80 80 81 82 81 80 80 80 80 80 80 79 77 79 75 75 76 76 79 79 80 79 77 76 75 75
79 73 74 77 80 79 83 74 74 80 83 79 81 82 82 82 84 82 84 82 83 82 81 79 79 81 80 79 80 79 78 74 80 79 77 76 78 74 69 71 72 73 75 75 76 75 75 75 75
74 75 67 75 80 80 80 67 76 83 81 79 80 81 82 82 84 85 85 85 85 83 81 80 81 80 79 74 67 67 74 75 75 73 73 71 71 69 69 72 72 72 71 71 70 70 70 71 72
72 62 66 69 81 79 78 70 77 83 82 79 80 81 81 81 84 85 85 86 85 84 81 80 79 78 74 70 78 77 74 75 75 74 75 74 74 74 75 76 74 73 74 74 72 71 70 69 69
62 66 68 68 75 78 74 72 76 81 81 79 81 80 79 79 81 84 85 86 86 84 82 80 79 78 74 82 79 78 78 78 79 78 77 76 77 74 74 76 72 72 73 72 71 67 69 68 68
72 69 68 73 76 74 72 73 75 79 80 79 80 80 79 80 83 83 84 85 84 82 81 79 79 78 81 81 79 78 76 77 76 76 74 74 74 74 72 73 73 72 71 69 68 67 65 65 67
72 68 68 72 74 73 73 71 76 77 78 80 79 80 80 80 79 79 80 82 82 80 80 80 79 80 82 82 81 80 79 77 76 75 73 74 73 74 73 70 70 70 69 67 66 65 63 64 65
71 68 66 67 72 75 73 68 70 74 76 78 80 82 82 79 77 76 77 78 79 78 79 80 80 81 80 79 79 77 77 75 76 76 76 73 71 72 71 70 69 67 67 66 65 64 61 59 61
64 73 71 68 66 60 74 55 67 70 71 72 75 77 78 78 78 77 77 75 74 78 80 81 80 78 76 78 76 73 74 72 71 72 72 72 72 71 71 70 68 67 66 64 64 66 61 59 56
62 73 71 70 67 66 66 62 49 70 68 70 73 75 76 78 78 77 78 78 80 79 78 78 77 76 76 75 75 73 71 71 72 70 68 69 69 69 69 68 66 65 65 64 63 62 60 59 57
73 70 70 70 67 54 64 61 58 67 71 72 73 74 75 76 77 78 79 79 77 77 75 74 74 74 73 72 71 68 67 67 67 65 65 65 66 66 66 65 63 63 63 62 63 61 58 55 54
72 66 55 53 52 50 66 62 65 73 76 76 73 73 74 76 76 76 76 76 75 73 72 73 73 71 71 70 69 67 66 65 65 64 63 62 63 63 63 62 61 62 63 62 59 54 53 52 52
67 67 55 44 47 55 64 56 67 77 79 80 78 76 75 74 75 76 76 76 74 72 72 72 72 70 69 68 67 67 66 66 66 63 63 62 61 62 61 61 61 62 61 57 57 54 53 52 53
67 60 70 58 57 52 60 67 74 73 74 76 75 74 73 74 75 75 76 76 74 72 71 71 71 70 69 67 65 64 64 63 62 62 62 61 61 61 61 60 60 59 58 56 54 55 54 55 54
68 72 57 59 44 43 56 59 62 66 68 72 73 73 73 74 75 75 76 75 74 72 71 71 71 69 68 65 63 64 63 63 63 62 60 59 59 59 59 58 59 58 58 56 56 55 55 53 53
64 62 63 63 58 47 46 57 70 69 71 71 74 74 74 74 75 75 75 74 73 72 71 69 69 68 65 65 65 61 63 62 62 61 59 59 58 58 58 57 57 57 56 57 55 54 53 53 52
70 66 65 52 51 54 50 55 71 71 73 74 74 76 76 76 76 76 74 72 70 69 68 68 68 66 66 66 62 62 63 62 61 60 59 58 57 57 57 56 56 56 56 55 54 53 53 52 50

GFSSGP_sfc_temp_012.txt.gz
Temp
76 82 86 85 69 70 66 72 83 77 74 82 84 80 74 76 70 60 71 76 78 78 77 77 73 74 75 75 75 75 75 75 75 75 75 75 75 75 74 74 75 75 76 77 76 76 75 74 73
85 89 87 79 65 61 67 79 69 75 78 82 82 80 76 70 77 76 76 82 82 80 79 77 73 73 74 74 75 75 75 75 75 75 75 75 75 75 74 74 74 75 76 76 76 75 74 73 72
80 89 78 72 67 62 68 76 75 76 79 78 76 81 78 73 79 78 80 79 82 80 81 76 73 73 74 74 74 73 74 74 74 74 75 75 75 74 74 73 74 75 75 75 75 74 73 71 70
84 83 80 66 65 73 76 77 79 79 81 82 79 71 79 85 81 84 79 77 78 77 76 71 72 73 74 74 73 73 73 73 73 73 74 74 74 74 73 73 74 75 75 75 74 73 72 71 70
85 80 68 66 68 76 82 80 71 62 67 65 70 71 74 80 86 85 78 78 72 69 70 71 69 71 73 73 73 72 72 72 72 72 73 73 73 73 73 72 73 73 73 73 73 72 71 71 70
75 77 64 62 70 78 84 75 68 63 64 67 64 75 75 82 82 75 73 72 70 69 69 70 70 70 70 71 71 71 71 71 71 72 72 72 72 72 72 72 72 72 72 72 72 71 71 71 71
72 71 66 69 71 74 81 80 72 67 70 72 76 63 60 81 73 70 70 68 68 69 69 68 69 72 70 69 69 70 70 70 70 70 71 71 71 71 72 72 72 72 71 71 71 71 70 71 71
78 75 68 71 71 72 72 73 69 68 75 84 78 63 67 71 71 68 69 68 66 66 68 68 68 69 70 71 69 69 69 70 70 70 70 70 71 71 71 71 71 71 71 71 71 71 71 71 70
85 68 65 70 73 65 64 62 72 77 80 79 78 69 73 77 76 73 69 63 63 64 68 69 69 71 70 70 70 70 70 70 70 70 70 69 72 72 72 71 71 71 70 70 71 71 71 70 69
75 67 69 73 73 67 64 58 65 78 70 72 74 63 68 77 74 71 70 63 61 63 68 71 71 71 72 77 71 70 73 72 72 73 71 72 74 73 76 72 71 72 71 71 71 71 70 70 71
76 68 77 66 65 67 70 65 80 74 64 62 59 71 77 75 73 72 73 73 70 72 73 74 72 72 75 75 74 74 75 72 74 75 75 74 74 72 72 70 72 69 70 73 71 72 72 72 69
71 77 78 70 69 68 74 78 68 68 62 61 64 77 77 75 74 77 73 74 75 75 75 75 76 73 73 75 75 74 75 74 73 74 75 72 71 70 69 68 67 67 70 71 70 69 71 68 70
73 77 80 81 78 79 77 75 69 68 70 73 70 82 78 77 78 80 81 78 77 75 76 76 75 74 75 74 74 74 73 74 74 72 73 72 70 67 67 66 67 68 70 70 69 67 67 66 67
78 78 78 80 81 78 72 71 76 74 78 78 80 80 79 80 80 80 80 78 77 77 76 75 75 74 76 73 73 72 71 71 72 72 72 72 70 67 66 67 65 67 67 68 67 65 64 64 65
79 72 74 77 79 77 69 69 72 79 80 77 78 79 80 82 82 80 80 78 78 78 77 74 73 75 73 73 73 71 70 71 71 70 69 69 63 63 63 63 63 63 66 66 64 63 62 61 64
71 72 62 72 76 79 78 64 75 79 77 76 78 78 79 80 81 82 80 81 80 78 75 76 78 74 70 67 66 66 69 69 68 67 65 66 67 66 65 65 63 63 63 63 62 61 60 60 60
68 60 61 65 76 77 75 67 75 81 79 76 77 77 78 78 80 81 82 81 80 78 76 75 74 71 68 67 69 70 69 68 67 66 66 68 68 68 65 64 63 63 63 62 62 59 58 57 58
58 60 64 64 73 75 72 69 75 79 63 55 77 78 77 78 79 81 81 82 81 78 76 75 74 71 68 72 70 70 69 69 69 68 68 68 68 67 64 64 63 63 62 61 59 58 58 57 55
68 66 65 70 76 72 70 70 73 77 75 75 75 77 77 77 81 81 80 80 79 76 76 75 73 71 72 73 70 68 66 67 67 67 67 66 66 67 65 63 62 62 60 58 59 57 55 54 55
69 66 66 71 75 72 71 69 74 77 77 78 77 76 76 77 79 79 80 79 77 76 75 75 75 74 75 74 71 70 69 67 67 66 66 66 65 65 65 61 60 60 58 57 56 54 52 53 53
68 66 65 66 71 73 65 64 70 76 78 80 80 81 80 78 76 77 78 77 76 73 73 75 71 75 74 71 72 69 68 65 66 65 64 65 65 66 64 61 59 58 57 55 54 53 52 49 50
59 69 69 66 60 56 65 50 53 64 72 75 77 77 78 79 78 77 76 76 71 68 72 75 76 73 73 73 68 66 65 62 62 62 62 63 62 61 62 60 57 55 55 54 53 57 51 50 46
62 68 68 69 64 62 59 54 56 60 64 70 74 76 77 77 77 75 75 72 72 69 73 73 72 72 71 70 68 65 63 62 62 59 59 59 59 60 60 58 55 53 53 53 53 52 51 49 46
73 67 68 69 64 47 55 52 51 55 61 66 73 75 76 76 76 77 73 73 73 73 71 69 70 70 69 66 64 61 59 59 57 57 56 55 56 56 57 57 54 53 53 53 52 50 48 46 45
71 64 51 46 46 46 65 56 56 61 66 58 57 73 75 75 75 75 71 73 73 70 68 68 69 67 66 64 62 60 59 59 56 57 55 54 53 53 53 53 53 52 53 52 51 48 47 46 43
66 64 51 33 33 46 62 52 63 73 71 64 70 75 75 74 74 74 74 72 70 68 68 68 68 66 65 62 61 61 61 59 58 56 56 54 53 52 53 52 53 53 53 51 50 47 46 46 44
66 60 69 56 50 49 56 64 73 75 74 76 74 73 72 73 73 73 73 71 69 68 67 66 68 67 64 62 60 58 58 57 56 57 57 54 53 56 52 52 52 52 52 51 48 46 46 45 45
67 71 56 57 41 40 52 56 58 65 68 72 72 71 72 73 73 73 73 71 70 69 69 66 68 65 63 61 59 59 58 57 57 56 54 53 52 53 52 52 51 51 51 50 49 48 48 46 44
64 61 62 62 55 43 41 52 68 68 71 70 73 73 72 71 72 72 73 72 71 69 68 66 67 65 62 61 59 57 57 57 57 55 54 53 52 52 52 52 51 50 50 50 48 47 47 45 44
69 64 64 48 48 51 46 50 72 71 72 73 73 75 74 73 73 73 73 72 70 68 68 66 65 64 62 61 59 58 58 58 56 55 54 53 52 52 51 51 51 51 50 48 47 46 46 44 41

GFSSGP_sfc_temp_015.txt.gz
Temp
65 67 67 67 52 49 46 56 66 63 65 70 76 70 65 65 63 55 70 71 72 71 74 74 73 74 74 75 74 74 75 75 75 74 74 74 74 74 74 74 75 76 76 76 76 75 75 74 73
69 76 68 61 48 40 48 63 61 64 69 73 74 72 68 63 72 66 67 70 72 73 74 74 73 74 74 74 74 74 75 75 75 74 74 74 74 74 74 74 74 75 76 76 76 75 74 73 72
71 77 59 53 47 44 49 62 65 71 72 71 69 72 70 65 71 70 73 73 74 73 73 73 73 73 74 74 74 74 74 74 74 74 75 74 75 74 74 74 74 75 76 75 75 74 73 71 71
71 65 63 50 48 57 62 66 67 67 65 68 66 63 71 74 74 74 74 73 73 72 72 71 72 73 73 73 73 73 73 72 73 73 74 74 74 74 73 73 74 75 75 74 74 73 72 71 71
68 61 49 47 53 64 67 68 64 62 62 65 70 65 65 69 73 72 71 70 69 68 69 71 71 72 72 72 72 72 72 72 72 72 73 73 73 73 72 72 73 73 73 73 72 72 71 71 71
59 61 49 46 58 69 63 64 64 62 63 65 67 67 65 70 68 67 68 67 68 67 68 69 71 70 69 71 71 71 71 71 71 72 72 72 72 72 72 72 72 72 72 71 71 71 71 71 71
54 52 51 56 60 63 66 67 62 61 62 63 68 58 62 63 65 68 67 68 67 67 65 67 68 68 69 69 69 69 70 70 71 71 71 71 71 71 72 72 71 71 71 71 71 71 71 71 71
64 58 55 58 60 57 65 66 68 65 62 73 66 57 58 62 65 66 66 66 66 65 64 65 67 67 67 69 68 69 69 69 70 70 70 70 70 71 71 71 71 71 71 71 71 71 71 71 70
67 54 51 57 54 55 60 61 64 71 70 70 64 63 63 64 66 64 62 63 64 64 65 65 65 67 67 67 69 70 70 70 69 70 69 68 68 68 70 69 70 71 70 70 71 71 69 69 69
60 52 55 63 65 60 63 62 65 67 62 58 63 66 66 65 64 62 61 60 62 62 64 64 66 66 68 73 67 66 70 68 67 68 68 68 67 67 71 69 69 70 69 70 71 71 69 70 67
61 58 62 62 65 66 63 63 66 64 58 63 61 62 63 67 62 63 63 62 62 65 66 66 67 69 69 70 67 66 66 66 67 69 68 68 69 67 67 65 63 65 69 68 69 68 68 66 64
59 69 72 65 67 63 63 64 64 60 61 65 66 67 65 66 62 62 62 62 63 65 68 69 69 69 69 70 68 68 68 68 68 69 69 67 64 64 63 62 62 63 64 63 64 65 66 64 64
66 68 73 70 71 67 70 64 64 59 63 69 67 69 67 69 67 62 65 68 69 69 70 69 70 69 69 68 69 68 68 67 68 68 68 66 63 63 63 62 62 63 63 62 61 63 62 61 62
71 70 69 71 71 69 67 65 68 63 64 64 67 66 71 70 69 68 70 69 70 69 69 68 69 68 70 69 67 65 65 67 65 65 65 64 62 61 60 60 61 60 60 60 60 59 58 59 59
71 63 65 68 66 66 70 60 61 68 67 65 66 68 71 72 72 70 71 70 70 70 70 67 67 68 68 66 66 64 65 65 64 63 61 61 61 59 60 59 58 58 59 59 59 57 57 56 59
64 63 54 67 70 69 67 53 64 69 69 66 67 69 71 71 71 71 72 71 71 69 68 68 73 66 64 63 62 63 64 61 61 60 61 62 63 61 59 58 57 58 58 58 56 56 55 54 54
58 49 56 62 72 65 60 54 66 70 70 66 66 67 68 68 71 72 73 71 71 70 69 67 66 64 63 62 62 63 62 61 60 59 60 62 62 62 58 58 58 59 57 56 56 54 53 52 52
51 53 53 57 63 63 58 56 64 65 64 62 63 61 66 67 68 72 71 72 70 70 67 68 66 64 64 63 63 62 60 59 59 59 60 62 61 62 58 58 57 57 56 54 54 53 53 51 51
62 59 57 59 66 61 60 59 59 59 58 64 59 60 61 66 69 72 71 71 68 66 69 67 65 64 63 63 61 59 58 58 58 60 61 60 60 60 58 57 57 55 54 52 53 51 50 50 48
60 57 57 64 66 62 56 57 62 58 59 62 58 59 61 64 69 71 68 69 69 65 69 67 67 65 66 70 61 61 62 58 59 58 59 60 60 60 60 55 54 53 53 52 51 49 48 47 47
60 58 56 58 61 59 59 55 58 64 65 63 63 61 68 68 69 68 69 68 68 67 68 68 67 68 67 67 64 61 59 57 56 56 56 57 58 58 56 53 51 50 50 49 48 48 48 45 46
54 64 62 61 57 46 56 39 51 62 63 65 68 67 68 68 70 69 65 64 67 66 70 70 71 69 65 64 63 62 56 56 54 54 54 54 56 55 55 53 50 49 48 48 47 52 46 45 41
58 64 60 59 55 53 54 47 47 55 59 62 63 65 64 68 69 67 65 64 66 68 65 69 69 67 63 62 60 59 56 54 52 52 51 53 53 53 53 52 50 49 48 47 46 44 44 43 41
66 61 59 56 51 39 51 48 46 50 58 62 63 68 67 66 65 67 65 66 67 65 64 68 67 62 59 58 56 55 54 51 51 50 49 50 50 50 51 53 49 49 47 46 45 44 44 42 42
61 53 40 38 35 33 54 49 51 57 63 63 64 66 63 64 65 63 63 64 65 60 61 65 63 58 58 55 54 53 52 52 51 49 48 49 48 48 48 49 47 47 47 47 46 44 43 42 40
57 53 39 33 29 39 51 45 52 67 66 67 68 64 63 63 63 63 66 68 64 62 64 60 60 58 57 55 54 54 53 50 51 50 49 48 47 47 48 47 48 48 49 46 45 43 42 42 40
58 49 56 42 43 37 46 54 63 62 61 60 60 59 60 62 62 65 66 65 63 63 59 57 59 58 57 54 53 52 52 51 50 50 51 48 48 52 48 47 47 47 47 46 45 43 42 42 41
60 61 46 43 32 31 42 45 47 56 59 59 56 59 61 62 62 61 63 62 62 61 59 57 57 58 56 53 52 52 51 51 51 49 49 50 50 49 47 47 46 46 46 45 45 42 43 43 43
54 51 53 51 40 32 29 39 56 57 59 58 60 63 63 63 62 61 62 63 62 62 59 57 56 56 54 52 52 51 51 51 51 50 49 50 48 51 48 47 47 47 46 45 43 42 43 42 39
61 55 53 35 40 35 32 39 60 61 60 62 62 65 64 65 64 63 63 62 61 60 60 58 55 57 54 53 52 51 52 53 51 51 51 49 49 48 47 47 46 47 46 45 44 43 42 41 40

GFSSGP_sfc_temp_018.txt.gz
Temp
62 64 64 64 51 46 42 51 59 59 61 67 70 66 61 64 61 54 69 71 72 71 73 73 73 74 74 74 74 74 75 75 75 74 74 74 74 74 74 74 75 75 76 76 76 76 76 75 73
65 70 65 57 44 39 44 56 57 61 66 69 70 67 64 62 67 66 66 71 71 71 73 73 73 73 74 74 74 74 75 75 75 74 74 74 74 74 74 74 74 75 76 76 76 76 75 73 72
68 72 57 51 41 41 45 56 59 62 67 67 66 68 66 62 67 67 70 71 70 71 72 73 73 73 73 73 73 73 74 74 74 74 75 75 75 75 74 74 74 75 76 76 75 75 74 72 71
67 62 57 48 44 52 54 59 63 65 67 68 65 60 67 68 70 69 71 72 70 70 72 71 72 72 73 73 73 73 73 73 73 73 74 74 74 74 74 73 74 75 75 75 74 73 73 71 71
62 56 45 43 48 59 64 63 62 58 60 64 66 60 61 66 69 70 71 71 69 68 70 71 71 72 73 73 73 72 72 72 72 73 73 73 74 73 73 73 73 73 74 73 73 72 72 71 71
55 54 44 42 53 64 60 61 63 59 61 64 64 61 61 67 67 67 67 67 68 67 69 69 70 69 70 71 71 71 71 71 71 72 72 73 72 72 72 72 72 72 72 71 71 71 71 71 71
50 48 45 49 56 57 62 62 59 62 62 62 63 56 60 63 66 67 66 65 64 65 66 65 65 67 67 67 69 69 70 70 71 71 71 71 71 71 71 71 71 71 71 71 72 71 71 71 70
57 53 48 53 51 49 59 61 64 63 62 68 65 55 56 62 65 66 65 64 63 64 64 63 64 65 66 67 68 69 69 69 70 70 70 69 70 71 71 71 71 71 71 71 72 71 71 71 70
62 50 46 50 55 57 60 59 64 68 63 62 62 61 62 64 66 63 62 61 62 64 65 63 64 66 66 66 69 69 70 70 69 69 69 67 67 68 69 68 70 70 69 70 71 71 69 68 68
58 49 52 61 61 57 59 63 66 64 60 58 57 61 63 63 63 61 60 60 61 61 61 64 65 65 66 71 66 65 68 66 66 67 67 66 66 66 68 68 69 69 70 69 69 68 68 66 63
57 54 61 62 62 62 60 61 64 62 56 60 55 59 61 61 62 62 61 61 62 61 61 63 64 66 68 68 64 64 64 64 66 66 66 65 66 64 64 63 62 62 66 65 65 64 63 63 61
56 65 65 62 64 62 64 65 62 61 62 64 62 62 62 60 60 61 62 61 62 62 62 63 65 66 66 66 65 64 65 65 65 66 67 64 62 62 61 60 60 61 60 60 60 60 61 61 61
60 65 67 66 66 64 68 63 61 58 61 64 66 65 61 62 61 63 64 64 64 63 64 65 66 67 66 65 64 65 65 66 66 66 66 63 61 60 60 59 59 59 60 60 58 58 58 58 59
64 67 65 66 65 66 64 62 62 59 61 62 64 64 62 61 62 62 64 63 64 65 66 66 66 66 67 66 65 64 65 64 63 62 62 62 61 58 58 58 59 58 57 57 56 56 56 55 56
67 61 62 62 64 63 66 57 57 63 62 62 63 64 66 61 63 63 65 66 67 68 67 65 64 66 65 64 63 62 64 62 61 61 61 61 60 58 58 57 57 56 56 56 55 55 54 54 56
60 58 52 62 66 63 63 51 63 64 62 59 62 64 65 66 63 65 67 68 67 68 66 66 71 64 63 62 60 61 60 59 59 59 59 60 60 59 57 56 56 55 55 54 53 53 53 52 51
53 47 52 59 69 65 60 51 62 65 64 60 60 62 65 66 66 68 69 67 68 67 64 64 63 62 61 60 61 60 59 59 58 57 57 59 59 59 56 55 54 55 54 53 53 52 51 49 50
48 51 51 54 63 62 57 53 61 62 62 58 58 60 63 65 65 68 68 69 68 66 64 65 63 61 61 61 59 58 57 56 57 57 57 59 58 58 56 55 54 54 53 52 51 50 50 49 48
59 56 55 54 61 58 55 55 57 59 60 56 58 61 61 66 68 69 68 68 66 61 65 65 62 61 62 61 59 55 54 55 55 57 58 57 57 57 55 53 53 52 52 50 50 48 48 47 46
57 54 53 57 61 59 52 54 55 56 63 61 60 61 65 62 64 66 66 66 65 64 65 64 64 62 63 64 60 57 58 54 55 55 56 57 56 56 55 52 51 50 50 49 48 47 46 44 44
55 54 52 53 57 57 55 49 53 59 60 61 62 67 68 64 65 64 65 64 65 64 65 65 65 63 64 62 59 56 55 54 53 52 53 54 55 55 52 51 49 48 47 46 45 45 45 43 42
50 62 59 57 52 45 52 39 49 56 57 60 62 58 60 61 68 66 64 63 64 64 67 66 66 64 64 63 61 60 59 56 52 51 51 52 53 52 52 50 48 47 46 45 44 46 42 42 40
55 59 57 56 50 46 47 44 50 50 56 57 58 60 59 62 67 65 64 65 65 64 63 65 64 61 63 62 63 59 52 52 50 49 49 49 49 50 51 49 48 46 45 44 43 43 42 42 40
62 58 55 51 47 35 46 44 42 47 59 61 59 62 63 65 64 61 64 66 64 63 63 62 66 64 64 60 56 57 53 51 49 47 47 47 47 47 48 49 47 45 44 44 43 42 42 40 40
58 49 39 37 32 32 50 45 48 56 58 60 60 60 64 64 60 60 61 63 63 60 59 64 64 60 59 58 53 53 52 51 50 48 47 47 46 45 45 46 45 46 45 45 43 42 41 40 39
54 50 37 32 29 38 47 40 49 61 64 64 62 61 59 59 63 62 62 62 62 60 61 62 62 58 56 54 51 51 52 50 49 49 47 47 46 46 47 48 48 46 47 46 43 42 41 40 39
54 47 52 39 37 35 41 51 56 59 57 57 58 58 57 57 58 60 60 62 60 59 58 57 57 57 56 52 51 50 50 51 50 49 48 46 46 49 49 47 48 45 45 44 43 41 41 40 39
55 57 44 40 33 31 40 41 44 52 55 57 55 55 57 58 58 58 61 59 60 60 58 56 58 56 53 52 51 51 51 51 50 48 47 49 49 49 48 48 46 45 45 44 43 41 41 40 38
51 49 49 47 38 33 29 38 52 55 57 57 57 57 57 58 59 60 59 60 60 59 59 58 58 55 53 52 51 50 49 49 48 49 49 48 47 49 49 48 46 47 45 45 43 43 42 40 39
55 52 50 34 39 32 30 39 56 57 58 58 57 59 58 61 61 61 60 59 59 60 58 57 56 55 54 54 52 51 51 51 49 48 47 48 48 48 48 46 47 46 45 44 43 42 42 40 39

GFSSGP_sfc_temp_024.txt.gz
Temp
60 60 60 60 49 43 38 46 50 53 56 62 65 62 59 59 59 51 68 69 71 71 72 72 73 74 74 74 74 74 74 75 75 74 74 74 75 75 75 75 75 76 77 77 77 76 76 75 74
61 64 60 52 42 36 41 49 50 54 59 62 64 63 59 59 66 64 66 70 73 72 71 71 73 73 74 74 74 74 75 75 75 74 74 74 74 74 74 74 75 76 76 77 77 77 75 74 73
64 65 55 46 37 39 41 51 54 57 60 61 60 62 60 60 66 66 70 72 73 71 71 71 72 73 73 73 74 74 74 74 74 74 75 75 75 75 74 74 75 76 76 77 77 76 74 72 71
62 59 53 44 40 46 50 53 54 57 61 62 58 56 64 67 68 68 70 71 70 70 69 70 71 72 73 73 73 73 73 73 73 74 74 75 75 75 74 74 75 76 76 76 75 75 73 70 71
57 52 43 38 42 50 55 56 56 55 56 58 59 57 59 65 68 69 67 69 67 67 67 71 70 72 72 73 73 72 72 72 73 73 74 74 74 74 73 73 73 74 74 74 74 73 72 71 71
52 49 40 37 44 54 57 55 57 57 57 59 58 58 59 67 66 65 65 63 64 63 64 67 71 71 71 71 71 71 71 71 72 72 73 73 72 72 72 72 72 72 72 72 72 71 71 71 70
49 44 38 41 48 51 56 58 57 56 57 56 58 56 60 63 64 64 63 63 63 63 63 63 64 65 68 69 69 69 70 70 71 71 71 71 71 71 72 71 72 72 71 71 71 71 71 70 69
51 48 39 43 47 47 58 58 59 58 55 62 61 55 57 62 64 63 62 62 62 62 63 62 62 62 63 65 68 69 69 69 70 70 69 69 70 70 70 70 71 71 71 71 71 70 70 69 68
52 44 39 44 47 52 57 55 57 60 57 59 61 60 63 63 64 61 59 60 61 61 61 62 61 61 62 65 68 69 70 69 69 69 69 66 65 65 66 69 70 70 69 69 69 68 67 67 67
51 42 46 53 54 54 55 56 58 57 55 57 59 62 63 63 62 60 57 57 58 59 60 61 60 60 62 67 65 65 67 65 65 65 65 65 64 64 65 67 68 68 68 67 67 66 65 63 58
49 48 53 57 59 59 56 57 60 56 53 57 57 59 61 62 61 60 59 59 58 59 60 61 60 61 62 64 63 62 63 63 64 64 64 63 63 62 61 60 60 59 63 61 61 60 59 58 57
51 58 58 60 58 58 59 60 59 57 57 62 61 61 62 61 60 61 59 59 58 59 60 61 62 63 63 62 62 62 62 62 62 63 64 61 60 59 58 57 56 57 57 56 56 55 56 56 56
53 58 60 61 59 59 62 58 56 53 59 63 62 61 61 60 60 62 62 61 62 61 62 62 61 62 62 61 60 60 61 62 62 62 62 60 58 57 57 56 56 56 56 55 54 54 54 54 55
59 60 57 58 60 62 59 57 56 56 58 58 60 58 59 60 60 60 61 60 60 62 61 60 60 62 62 60 59 60 61 62 61 61 60 60 58 55 55 55 55 54 54 53 53 53 52 52 53
59 56 57 56 59 60 62 53 51 58 58 57 57 58 58 60 60 60 61 59 59 60 60 60 61 62 61 60 60 60 61 62 60 60 60 58 56 55 55 54 53 53 53 53 52 52 51 51 52
56 56 51 56 59 60 55 47 53 58 56 58 58 58 58 58 59 58 60 61 61 60 60 61 65 61 60 59 59 59 60 59 58 58 58 58 57 56 54 53 52 52 52 52 51 51 49 48 48
49 45 48 52 60 58 57 49 54 57 57 55 56 56 57 57 59 59 60 60 61 62 61 60 61 59 59 58 58 58 58 57 56 56 56 57 57 56 53 52 51 52 51 50 51 49 49 47 46
42 44 41 48 54 54 53 49 53 56 57 55 54 56 56 57 59 62 61 61 61 61 60 61 60 59 58 57 55 54 55 55 55 55 55 56 55 55 53 51 51 51 49 49 48 47 45 45 45
50 47 46 51 58 55 51 49 51 53 53 53 53 54 56 58 62 62 62 61 60 59 59 59 58 57 59 56 53 53 53 53 53 54 55 55 54 53 51 50 49 49 48 47 47 45 45 43 42
52 48 46 52 56 52 47 47 49 52 55 55 56 55 57 58 58 60 60 59 60 59 60 59 59 58 60 60 55 55 53 51 52 52 52 53 52 52 51 48 47 47 46 45 45 45 42 41 41
51 48 48 49 51 50 49 45 49 54 55 56 56 58 59 58 58 60 60 59 60 59 60 60 60 60 60 58 54 52 52 52 51 49 49 50 51 50 49 47 46 45 45 44 43 43 44 41 42
49 56 51 50 46 40 46 37 45 50 52 54 56 55 58 59 60 61 61 59 58 59 61 61 61 60 59 57 56 57 54 52 50 49 48 47 49 48 48 47 46 45 44 43 45 45 43 42 40
53 55 50 50 45 44 42 40 44 46 50 55 56 58 58 60 60 60 61 62 61 60 60 60 60 60 60 59 58 55 50 49 48 47 46 46 46 47 47 46 46 44 44 45 45 45 42 42 39
57 54 50 46 43 34 41 40 41 43 54 59 59 58 61 58 58 60 61 61 60 58 58 58 58 59 58 58 56 55 52 49 47 45 44 44 44 44 45 46 44 44 45 46 46 45 42 41 40
53 47 37 35 32 32 44 40 45 53 54 56 57 59 60 62 56 56 57 59 59 57 59 59 58 58 57 57 55 54 53 53 51 48 46 44 43 43 43 44 45 45 47 45 46 44 41 40 39
48 47 35 31 28 36 42 38 48 55 55 58 58 57 57 58 59 58 60 60 60 59 59 60 59 59 58 58 56 55 54 54 53 51 49 47 48 45 44 47 49 47 48 47 45 43 41 40 39
48 42 47 36 33 32 36 44 53 53 54 52 52 53 53 52 54 57 59 60 59 59 60 60 60 60 56 56 53 52 52 51 50 51 50 47 47 48 48 48 48 47 47 46 44 43 42 40 38
51 52 41 37 32 30 34 35 41 51 53 53 52 52 53 51 52 54 56 58 59 60 61 59 60 59 55 53 52 51 51 51 49 49 47 48 48 48 48 47 47 46 45 45 44 42 40 38 37
48 45 42 42 35 31 27 35 47 51 53 53 53 53 53 53 52 53 55 56 58 58 57 57 56 54 51 50 50 49 49 49 49 49 48 49 49 49 48 47 46 46 45 45 43 41 39 38 38
50 48 45 34 36 30 28 34 51 52 53 52 55 56 52 53 53 53 54 55 55 56 54 53 51 51 51 50 49 49 47 48 48 48 49 48 49 48 48 47 46 46 45 44 42 40 40 38 37

GFSSGP_sfc_temp_027.txt.gz
Temp
69 71 73 73 63 60 55 58 62 63 65 67 69 69 66 65 63 60 69 71 75 74 79 78 73 74 74 74 74 74 75 75 75 75 75 75 75 75 75 75 76 76 77 77 77 77 77 75 74
71 72 73 66 59 53 57 59 60 62 64 67 65 67 66 60 67 65 67 73 74 76 79 79 73 73 74 74 74 74 75 75 75 75 75 75 75 75 75 75 75 76 77 77 77 77 76 74 72
73 72 70 63 55 53 55 60 63 65 65 66 65 67 65 62 67 67 72 74 74 74 78 78 73 73 74 74 74 74 74 74 74 74 75 75 75 75 75 75 75 76 77 77 77 75 74 72 71
72 72 65 59 55 56 59 63 63 64 68 68 66 60 66 67 68 69 73 74 72 73 76 73 72 72 73 74 73 73 73 73 73 74 74 75 75 75 74 74 75 76 76 76 76 74 73 71 70
69 66 59 54 52 60 62 63 63 62 64 64 66 59 62 65 66 67 69 70 69 70 74 72 71 71 72 73 73 73 72 72 73 73 74 74 74 74 73 73 74 74 75 75 74 73 72 71 70
66 63 56 53 55 61 64 64 63 62 63 64 64 63 60 67 64 64 65 65 67 66 67 69 70 69 70 71 71 71 71 72 72 73 73 73 73 72 72 72 72 72 72 72 72 71 71 71 70
62 60 55 53 55 58 62 65 62 62 63 62 66 60 61 63 63 64 63 64 64 65 64 64 65 66 67 68 69 69 70 71 71 71 72 71 71 71 72 72 72 72 71 71 71 71 70 70 69
64 62 54 55 56 58 64 65 64 63 60 67 66 60 57 61 62 63 62 62 62 63 63 62 62 63 64 66 69 69 69 69 70 70 70 69 70 71 71 71 71 71 71 70 71 69 69 68 67
64 59 55 56 57 61 64 62 64 65 63 63 64 63 64 61 63 61 60 60 61 61 61 60 62 63 64 67 70 70 70 69 69 70 69 68 75 75 75 70 70 69 68 69 68 68 66 66 66
64 57 57 62 65 63 63 63 63 62 58 59 60 62 62 62 61 59 59 58 58 59 60 63 61 60 62 66 67 69 70 70 71 73 73 73 73 73 74 71 68 67 67 67 67 66 65 69 72
60 59 62 64 66 66 62 63 65 62 58 61 58 59 60 61 59 59 59 60 58 60 60 61 60 60 60 60 64 65 70 68 69 68 71 72 72 71 71 70 68 69 67 71 70 70 71 69 70
59 63 64 66 66 64 63 65 61 60 62 65 64 64 61 60 59 60 59 58 59 62 61 61 61 60 62 62 65 67 68 70 71 72 71 70 70 67 67 69 69 67 69 68 68 68 67 66 66
60 64 66 66 65 62 65 60 58 56 62 62 64 63 62 60 60 63 61 63 61 60 61 63 65 65 67 67 69 69 70 72 72 72 71 70 69 67 68 67 68 68 68 69 68 68 68 66 66
65 64 65 64 64 64 61 59 61 57 63 61 62 63 64 62 62 62 63 62 61 63 63 65 66 68 69 69 68 69 71 71 70 70 68 68 68 66 67 67 68 67 69 68 68 68 67 66 66
65 61 62 62 64 62 66 59 55 59 60 59 60 62 63 64 64 64 64 64 65 67 67 66 66 68 68 68 69 69 70 71 70 69 67 67 67 66 66 67 66 66 66 65 65 66 66 65 64
61 61 57 62 63 63 64 53 55 59 59 58 60 61 62 64 64 65 66 65 67 67 67 67 69 68 68 68 69 69 71 70 70 69 69 68 68 66 66 67 65 66 66 67 67 66 64 63 63
57 55 56 58 65 63 63 55 59 60 60 59 60 62 63 63 64 65 67 67 67 68 67 67 68 68 67 68 69 69 68 69 69 68 69 67 67 66 67 67 64 65 65 65 65 63 64 62 61
52 54 56 57 63 62 60 57 57 58 59 58 61 62 62 63 65 67 67 68 69 69 69 69 69 68 67 68 67 65 67 67 65 66 69 67 67 66 66 64 63 65 64 63 63 62 61 62 62
58 55 55 60 63 61 58 58 56 58 59 58 59 60 62 64 68 67 68 69 69 68 68 69 67 67 67 66 65 64 65 64 64 66 66 65 66 65 64 64 62 63 64 62 61 60 59 58 59
57 55 56 59 60 61 57 57 58 57 59 61 61 60 63 65 66 66 67 67 67 69 68 69 69 68 67 69 68 67 66 64 63 64 64 65 64 64 63 62 62 62 61 59 59 59 58 58 57
57 54 54 55 57 57 56 55 56 59 59 62 62 65 65 65 65 65 65 66 67 67 67 68 69 68 68 68 65 62 60 62 62 63 63 63 62 63 62 60 61 60 60 59 58 58 57 55 54
54 61 57 55 54 51 57 48 53 57 58 60 63 63 65 66 67 68 66 66 66 67 68 69 68 67 67 65 66 64 64 63 65 63 62 62 60 60 61 60 59 58 58 57 57 58 57 56 54
58 59 58 56 52 51 51 50 55 54 56 60 63 64 66 67 67 68 68 69 69 69 67 68 68 67 67 66 66 66 63 63 62 58 55 56 58 59 59 59 58 57 58 57 55 53 55 55 50
60 58 55 52 51 44 49 50 53 55 60 64 67 65 66 67 66 69 70 71 70 68 68 66 67 67 67 65 64 64 61 59 59 58 57 57 57 57 57 58 57 57 57 53 49 51 51 51 55
59 55 46 43 41 41 49 48 55 63 62 63 64 66 68 69 69 67 67 67 69 66 66 66 67 67 65 64 63 62 60 58 59 56 52 52 53 54 54 56 55 56 55 55 54 52 52 54 54
55 55 44 36 36 43 48 45 57 64 64 64 65 65 66 67 68 68 68 69 68 66 67 67 66 67 65 64 63 61 59 57 58 58 55 52 54 54 55 55 56 54 51 55 55 53 55 53 53
53 50 55 42 39 40 46 51 60 62 64 62 63 62 63 63 66 66 69 69 68 67 66 66 66 67 65 65 65 62 61 59 58 56 55 54 53 54 52 55 55 50 52 51 53 54 53 52 52
57 57 47 45 37 35 43 44 51 59 61 62 62 64 65 64 63 62 65 66 67 68 68 66 67 67 67 66 65 62 59 58 57 55 54 54 53 54 54 54 49 52 52 53 51 51 53 51 52
53 51 48 50 45 40 38 45 57 58 61 63 64 62 62 64 65 64 64 66 67 67 67 65 66 68 67 64 62 59 57 57 57 55 55 52 50 50 51 48 53 51 50 53 52 52 51 50 51
57 54 51 44 42 40 39 44 60 61 60 60 63 62 64 64 65 65 64 64 64 65 65 65 65 65 62 58 60 59 57 56 55 54 51 50 48 51 50 51 50 53 51 52 52 50 51 49 49

GFSSGP_sfc_temp_030.txt.gz
Temp
77 86 90 85 70 71 66 68 75 73 74 75 77 78 79 77 73 67 79 77 82 83 85 81 73 74 74 74 74 74 75 75 75 75 75 75 75 76 76 76 76 77 78 78 78 77 76 75 74
88 84 86 83 66 62 66 72 70 74 75 76 74 74 74 64 72 68 68 76 81 82 85 83 72 73 74 74 74 74 75 75 75 75 75 75 75 75 75 75 75 76 77 78 78 77 76 74 72
84 84 79 74 68 63 67 70 72 74 75 76 74 73 61 64 71 74 79 77 78 80 81 82 72 73 73 74 74 74 74 74 74 75 75 75 76 76 75 75 76 76 77 77 77 76 74 72 71
86 84 80 67 64 69 69 74 74 74 76 77 77 68 66 67 68 77 78 74 75 78 80 73 72 72 73 74 74 74 74 73 74 74 75 75 76 76 75 75 76 76 77 76 76 74 72 71 70
88 81 68 65 64 69 74 75 73 71 74 73 76 67 68 65 69 75 74 73 72 74 75 74 71 72 73 73 73 73 73 73 73 74 74 74 75 74 74 74 74 75 75 75 74 73 71 70 70
78 78 65 66 65 70 74 75 72 69 71 72 73 72 65 67 66 67 69 70 71 71 73 71 72 72 72 72 72 71 72 72 73 73 74 74 73 72 72 72 72 73 72 72 72 71 71 70 70
73 71 66 65 64 68 70 74 71 69 72 70 76 68 63 62 63 64 65 66 67 68 67 66 65 67 68 68 69 70 70 71 72 72 72 71 71 71 72 72 72 72 72 71 71 70 70 70 68
79 74 65 67 65 66 72 72 72 70 70 76 77 66 59 60 63 63 63 63 64 63 64 64 64 65 66 69 68 69 69 70 70 70 70 70 70 71 71 71 71 71 71 70 70 69 69 68 67
78 69 68 65 67 69 74 70 74 72 70 72 71 73 64 62 63 64 61 61 60 60 61 61 61 63 66 68 71 70 70 69 69 70 69 70 79 81 79 71 70 69 68 68 68 68 67 66 66
74 69 67 73 74 72 74 71 72 70 69 67 63 60 61 63 65 63 61 59 58 58 58 60 61 61 63 66 70 73 73 77 74 74 76 78 77 81 80 73 68 67 67 67 67 67 68 73 81
74 68 74 74 75 76 67 68 72 71 68 70 60 58 60 61 63 62 61 59 58 59 59 60 60 60 62 61 64 72 74 72 74 74 76 76 75 78 80 78 78 76 72 78 76 77 80 76 79
68 74 74 75 75 73 69 70 65 69 67 72 67 62 61 62 62 61 60 58 57 59 60 61 62 62 62 63 62 70 73 75 73 74 75 76 78 77 77 79 79 76 77 74 74 76 74 74 74
69 73 75 76 73 70 73 69 67 64 66 71 66 65 61 62 64 68 67 65 61 59 59 62 64 62 63 68 74 76 74 75 77 78 79 80 78 76 78 76 78 78 78 77 76 76 76 74 74
74 74 74 73 73 71 68 67 69 63 68 65 65 64 61 60 66 68 68 65 65 64 62 63 67 70 73 75 75 76 78 79 79 79 78 78 78 76 76 76 77 76 79 78 78 77 76 76 75
74 68 72 72 71 70 71 67 65 67 70 67 65 69 71 68 71 69 71 67 67 67 66 67 70 73 73 75 75 76 78 78 78 78 76 77 76 74 76 78 76 76 77 75 75 74 74 75 75
70 69 65 70 71 71 71 61 66 66 68 69 70 70 71 71 70 73 73 69 71 72 71 71 74 73 73 73 76 77 78 78 80 78 77 76 77 76 76 76 76 76 75 76 75 75 74 74 75
68 62 63 65 73 71 71 65 69 66 68 70 71 69 71 71 72 74 76 75 73 75 73 73 73 73 72 73 74 76 77 79 79 78 78 76 77 76 76 77 74 74 74 74 74 73 74 71 73
61 62 65 63 71 71 69 67 71 68 68 67 72 72 72 72 72 73 75 77 77 76 76 75 75 74 74 77 77 79 78 78 77 78 79 76 78 75 75 75 72 74 74 72 73 70 72 73 72
66 64 63 69 71 68 68 69 69 70 68 67 70 72 73 73 76 76 76 77 76 77 76 76 75 75 76 77 75 75 74 76 76 77 77 75 76 74 74 74 72 73 73 72 70 70 66 68 69
65 63 63 68 69 67 69 68 70 70 69 70 72 71 73 76 76 75 76 76 75 76 76 76 77 77 77 79 78 78 77 77 76 75 74 75 74 75 73 72 72 72 71 68 68 67 67 69 67
65 64 62 62 65 68 67 65 67 71 72 72 73 75 76 77 76 76 75 75 76 75 76 77 78 78 77 78 79 77 76 74 72 70 70 73 73 74 73 71 72 70 70 68 67 67 65 64 65
61 70 65 63 61 57 65 55 64 69 68 68 71 72 75 77 79 79 77 77 76 77 78 78 79 79 78 78 78 73 74 72 71 68 72 74 71 72 73 72 70 68 69 68 67 67 65 64 59
64 68 66 65 63 60 59 58 64 65 66 71 73 74 76 79 80 79 80 81 80 79 77 78 79 79 79 77 76 75 74 76 77 71 72 70 68 67 71 70 68 67 68 66 65 62 61 63 63
69 65 64 64 63 50 59 59 63 66 70 74 77 77 78 79 80 81 82 83 82 81 79 77 77 78 78 77 75 75 74 74 71 70 67 65 61 61 65 67 66 66 66 63 61 56 57 62 61
68 63 52 50 49 48 58 55 62 71 74 74 75 79 81 80 80 80 81 82 81 80 78 77 77 77 77 76 74 74 73 71 67 66 63 61 63 59 62 63 61 58 58 59 58 54 54 59 61
64 64 52 40 43 52 56 52 64 74 75 77 77 77 78 79 80 81 82 82 82 80 79 78 77 76 78 75 74 73 71 69 67 65 60 58 57 55 60 54 57 60 56 57 52 53 56 60 60
61 58 66 54 50 50 57 61 70 74 74 74 75 75 76 78 80 81 82 83 81 80 78 77 76 75 77 76 74 72 71 69 66 63 61 60 59 61 56 53 55 57 55 53 51 56 59 57 58
66 68 54 56 42 41 52 54 60 66 69 72 74 75 77 77 76 77 78 80 81 81 81 78 78 75 76 76 74 73 71 69 63 62 59 57 59 61 59 55 55 50 50 50 54 59 58 58 57
60 60 60 60 56 47 44 54 69 68 72 72 74 74 76 77 77 76 75 78 79 79 79 77 76 74 76 78 75 72 70 64 61 61 60 61 63 61 57 52 48 49 51 56 55 56 58 53 54
69 64 63 52 50 52 49 53 73 73 74 72 74 73 75 76 76 76 76 75 76 76 77 77 77 77 77 77 75 72 66 64 63 63 62 61 61 54 50 49 50 53 58 57 54 56 54 51 50

GFSSGP_sfc_temp_033.txt.gz
Temp
78 86 94 89 72 73 68 73 81 77 79 85 86 82 82 75 67 64 80 84 87 84 85 79 74 74 74 74 74 74 75 75 75 75 75 75 76 76 76 76 76 77 78 78 77 77 76 75 74
93 92 90 83 68 65 69 79 74 80 83 83 81 80 81 68 75 73 75 78 81 82 83 80 73 74 74 74 74 74 75 75 75 75 75 75 75 75 75 75 76 77 77 77 77 76 75 74 72
86 91 81 76 71 66 64 76 77 81 81 81 80 79 66 63 72 75 80 81 76 80 85 77 72 73 73 74 74 74 74 74 74 75 75 76 76 76 75 75 76 77 77 77 77 75 74 72 71
89 87 84 70 67 74 74 78 79 79 83 83 83 71 70 66 67 70 73 79 76 73 78 72 71 72 73 74 74 74 74 73 74 74 75 76 76 76 75 75 76 77 77 76 75 74 72 71 70
90 85 72 69 70 74 78 80 80 77 80 80 82 72 67 68 70 72 69 76 71 71 77 73 71 72 73 73 73 73 73 73 73 74 74 75 75 74 74 74 74 75 75 75 74 72 71 70 70
80 83 68 66 70 74 79 81 80 76 78 79 79 73 66 67 68 69 72 71 69 73 72 71 72 72 72 72 72 72 72 72 73 73 74 74 73 73 73 73 72 73 73 72 72 71 70 70 70
77 76 69 69 69 63 73 80 77 76 76 78 82 68 64 64 63 65 66 67 66 67 67 68 69 70 69 69 69 70 71 72 72 72 72 71 71 72 72 72 72 72 71 71 71 70 70 70 69
81 78 70 71 68 60 77 78 79 77 78 83 83 72 65 62 64 63 63 63 64 65 65 64 65 67 70 70 68 69 70 70 70 70 70 70 70 71 71 71 71 71 70 70 70 69 69 68 68
85 72 67 69 70 72 80 75 81 81 76 78 74 69 64 64 65 63 60 60 60 62 62 63 63 64 66 69 70 70 70 69 69 70 69 71 76 77 75 71 70 69 68 68 68 68 67 67 67
78 73 70 77 77 75 78 76 76 76 75 71 60 62 62 63 65 64 59 57 57 58 59 62 62 61 62 65 65 67 72 73 76 77 77 80 75 77 76 70 68 68 67 67 68 68 67 70 81
79 71 78 79 78 80 72 74 75 73 57 58 62 59 61 63 63 61 60 59 58 59 59 59 60 59 59 60 60 63 65 68 74 75 77 77 75 73 74 73 73 74 72 77 75 75 81 79 80
73 78 79 80 80 77 74 74 68 74 66 67 65 63 64 64 64 60 58 58 58 59 59 59 62 61 61 61 62 63 65 70 76 76 77 73 75 74 75 77 78 76 79 78 79 77 75 75 75
75 77 80 81 79 77 77 75 74 69 70 70 65 64 66 67 67 64 60 59 58 57 58 60 59 59 61 63 66 69 74 76 76 74 76 77 77 77 79 80 80 79 79 78 77 76 77 76 76
78 78 79 79 78 78 72 73 74 71 75 68 70 65 61 65 68 67 64 59 59 58 57 57 59 62 64 67 66 68 75 76 77 77 78 79 79 77 78 76 78 79 80 80 79 78 77 78 76
79 73 77 78 78 76 73 59 68 73 74 69 67 70 68 63 69 73 69 63 61 61 63 62 62 65 68 70 69 70 74 78 78 80 79 79 80 77 77 79 78 79 80 79 77 77 77 77 77
74 75 63 73 77 78 66 49 71 76 75 72 73 72 73 73 75 75 74 71 69 63 65 68 73 72 70 72 74 77 77 79 81 81 77 78 79 78 77 79 78 79 77 77 77 76 75 75 75
73 64 60 66 78 77 67 48 73 77 76 73 75 76 76 75 76 74 73 71 70 69 70 69 70 72 73 76 76 78 78 77 80 78 75 77 79 79 78 79 78 77 77 76 76 75 75 72 73
63 66 69 64 71 75 70 71 74 75 75 74 76 76 76 76 76 76 74 76 76 73 73 73 73 73 73 74 76 79 79 79 81 78 79 79 80 78 77 79 76 75 76 75 75 73 73 73 73
71 68 67 70 72 72 71 67 74 75 75 72 75 72 76 76 79 76 77 77 77 76 75 75 75 75 76 74 76 77 76 78 78 77 78 79 79 78 76 78 74 74 75 74 73 72 69 69 70
69 67 67 71 74 71 72 71 69 75 75 76 76 74 76 77 78 77 76 78 77 76 77 77 77 77 78 79 80 79 79 80 80 76 78 79 78 78 76 76 74 73 75 72 70 70 69 70 69
68 66 65 66 71 74 72 69 72 77 78 78 79 80 80 79 78 78 77 77 77 77 77 79 79 79 79 81 82 81 81 80 79 77 75 76 76 77 77 75 74 73 74 70 69 68 68 67 67
63 73 69 67 65 57 72 55 67 74 74 75 77 78 79 80 82 81 79 78 78 78 79 80 81 81 81 81 81 78 77 76 78 77 77 75 74 74 77 76 74 73 73 71 69 70 68 66 65
67 72 69 69 66 65 64 60 61 73 70 74 77 78 79 81 82 82 81 81 81 80 79 79 81 82 82 81 79 79 76 78 79 78 74 72 75 74 75 75 72 71 70 70 68 67 65 64 59
75 69 68 68 64 53 60 61 57 67 72 75 79 80 81 81 83 85 86 85 84 83 81 80 80 82 82 81 79 78 76 76 78 76 73 73 72 71 71 72 68 66 63 66 67 65 60 56 59
71 64 53 49 50 49 65 60 64 68 77 77 78 82 83 83 83 85 85 85 85 83 81 81 81 80 81 80 79 77 77 77 76 74 72 71 68 63 61 61 60 58 58 53 53 54 53 53 54
66 65 54 37 40 51 62 54 65 78 81 81 82 83 85 85 84 85 86 86 86 85 83 81 81 80 81 79 79 79 74 74 74 71 70 66 61 55 56 55 59 58 54 55 55 52 50 52 54
66 61 70 58 58 52 58 65 73 77 77 79 79 80 82 84 85 85 86 87 86 86 85 82 82 82 82 81 76 76 74 72 74 72 71 65 60 60 59 62 60 56 54 51 49 49 52 50 57
69 73 58 59 42 41 55 58 61 68 72 76 77 79 81 83 83 84 86 86 88 88 88 85 83 83 83 80 76 76 75 74 71 69 64 61 61 61 62 60 57 57 54 49 50 49 50 54 54
64 62 64 63 59 46 46 55 71 71 74 74 77 79 81 81 82 81 82 85 86 87 86 85 83 82 83 81 79 75 72 69 69 66 63 62 61 62 63 59 58 54 50 48 49 51 55 56 57
70 66 65 54 52 56 53 56 75 75 77 77 77 79 81 82 82 82 82 81 82 83 83 84 83 81 82 81 79 73 67 64 63 62 63 61 61 63 61 61 56 51 49 50 52 51 54 56 52

GFSSGP_sfc_temp_039.txt.gz
Temp
64 70 67 66 51 47 45 53 63 64 68 69 72 68 63 63 61 53 68 66 68 68 67 74 74 74 74 74 74 75 75 75 75 75 75 75 76 76 75 76 76 76 77 77 77 77 76 76 74
69 77 69 60 46 39 47 62 62 67 70 68 71 68 65 59 68 67 65 68 70 70 67 74 73 74 74 74 74 74 75 75 75 75 75 75 75 75 75 75 75 76 77 77 77 77 75 74 72
70 76 59 52 45 45 47 62 67 72 76 74 63 67 64 60 67 65 68 68 70 72 75 74 73 73 74 74 74 74 74 74 74 75 75 75 76 76 75 75 75 76 77 77 77 75 73 72 71
70 66 62 49 48 56 56 60 64 71 75 69 64 57 64 66 66 68 70 68 66 69 71 71 72 73 73 74 74 73 73 73 73 74 75 76 76 76 75 75 75 76 76 76 75 74 72 71 71
67 60 48 46 52 62 62 63 65 63 64 61 66 56 59 64 68 68 67 66 65 67 70 69 70 72 73 73 73 73 72 72 73 74 74 75 75 75 74 74 74 74 74 74 73 72 71 71 71
59 59 46 47 58 64 64 62 66 60 59 59 60 62 61 64 65 65 66 65 65 66 68 68 70 72 72 71 71 72 72 72 72 73 73 74 74 73 73 73 73 72 72 71 71 70 70 70 71
56 51 48 54 60 59 63 65 65 58 58 56 60 56 59 60 63 65 65 63 65 66 68 66 68 70 70 69 69 70 71 71 71 71 71 71 71 72 72 72 72 71 71 70 70 70 70 70 70
63 56 51 55 58 59 63 65 67 63 55 64 60 55 54 59 62 63 64 64 64 65 65 65 66 67 68 69 68 69 70 70 70 70 70 69 70 70 71 71 71 70 70 70 70 69 70 70 70
65 51 48 58 62 60 69 64 61 65 58 63 61 62 61 62 63 62 61 62 62 63 64 65 65 65 67 68 68 70 70 70 70 70 69 67 67 68 69 69 69 69 68 69 69 69 69 69 69
59 49 55 68 64 63 67 68 62 63 61 59 57 60 62 62 61 59 58 59 60 61 62 63 63 64 65 66 65 66 68 68 69 70 68 68 65 67 68 68 68 68 68 68 68 68 68 67 63
63 55 65 70 70 67 63 65 67 58 55 58 57 57 60 60 60 58 57 58 58 59 58 60 60 61 61 62 64 63 64 63 67 67 69 67 66 65 64 63 64 64 66 66 66 65 64 64 62
58 68 70 69 69 67 64 66 59 59 57 61 60 61 61 59 59 57 56 57 56 56 56 58 58 59 60 61 60 61 62 63 64 66 68 67 65 64 64 63 62 62 63 63 63 61 62 62 64
64 67 71 72 73 69 70 63 59 56 60 62 62 64 61 59 59 58 58 58 57 55 56 57 58 58 59 61 60 60 61 62 63 67 66 67 65 64 65 64 63 63 64 63 62 63 64 63 63
68 69 68 71 70 69 65 61 62 60 61 60 64 60 59 58 58 57 56 54 55 57 56 58 58 59 59 59 60 60 61 63 63 63 66 67 66 64 64 63 64 64 64 64 63 63 62 61 61
70 62 66 68 69 65 67 58 55 63 63 61 61 60 59 58 58 57 57 55 56 56 57 57 58 59 59 60 61 60 61 64 63 64 66 67 66 65 64 62 64 64 65 65 63 62 61 59 61
61 60 52 65 65 63 64 52 58 60 64 58 59 61 60 59 59 58 58 57 57 56 57 58 61 59 60 60 61 61 60 63 65 67 65 66 67 67 65 65 64 65 64 63 62 60 60 59 58
55 48 52 59 70 62 58 51 60 62 63 60 60 60 59 60 57 58 58 58 57 56 57 58 59 59 60 61 62 63 63 65 68 68 64 66 68 67 65 65 64 64 63 62 62 60 59 57 56
48 50 49 53 64 61 53 51 59 62 59 61 60 59 61 61 57 59 58 59 58 57 58 59 59 60 61 63 63 64 61 64 67 64 64 68 67 67 65 65 65 64 62 61 60 59 58 57 57
61 58 55 58 67 63 56 51 56 61 58 61 61 62 62 61 60 61 59 60 59 58 58 58 58 59 61 61 60 59 60 62 62 62 67 65 67 66 63 63 62 65 61 60 59 58 57 55 54
62 57 55 62 68 63 55 51 56 58 58 62 63 62 62 62 61 61 61 59 59 59 60 60 61 61 63 64 65 63 62 61 63 63 64 65 65 65 64 62 61 61 60 59 58 57 54 54 53
61 57 56 57 62 67 60 48 52 59 61 65 66 67 65 62 60 62 61 59 60 60 61 63 64 65 66 66 67 64 61 61 61 60 63 65 64 66 64 62 61 60 59 58 56 55 56 52 51
55 65 64 61 54 46 61 41 50 55 60 63 65 65 63 62 64 64 63 59 60 61 63 64 65 65 67 67 66 64 64 64 65 61 63 63 64 63 65 63 63 62 60 58 57 59 57 55 52
59 65 61 59 52 49 54 46 52 59 56 61 63 65 65 65 64 65 64 64 63 64 64 65 66 66 68 67 67 65 65 65 66 63 64 65 63 65 64 61 60 60 59 59 59 57 55 53 51
68 63 60 57 51 38 50 48 47 54 59 64 66 67 68 67 67 67 68 68 66 65 66 66 67 67 67 67 67 67 64 63 63 62 63 63 64 63 62 63 61 59 55 54 54 54 53 52 52
61 54 41 37 35 34 53 48 50 59 63 67 67 68 68 70 69 67 67 68 67 67 66 67 68 68 69 69 69 68 65 62 64 63 60 61 59 58 60 59 56 55 54 55 55 52 50 50 50
58 56 39 33 30 40 50 44 52 64 64 69 73 72 71 68 71 70 69 69 70 69 69 68 68 69 70 70 69 70 67 66 67 61 59 59 61 61 57 55 55 54 54 52 51 50 49 50 49
58 50 59 46 46 38 41 52 60 65 65 65 66 66 64 65 67 71 72 71 71 71 70 70 70 71 71 70 70 69 69 66 62 62 62 62 62 57 55 55 53 51 50 50 49 48 49 49 49
61 63 48 46 33 31 41 44 49 59 62 66 65 64 66 67 69 71 72 73 73 73 73 71 72 72 72 72 70 69 67 67 63 63 59 59 56 57 54 54 53 52 50 49 50 49 49 49 48
55 54 54 53 46 35 31 40 57 59 62 63 65 66 66 67 67 67 67 69 74 77 75 71 71 67 68 67 69 68 65 65 66 62 60 58 56 56 55 55 53 50 49 50 50 49 49 48 47
61 58 55 39 41 45 38 43 62 62 62 67 68 68 66 67 68 69 68 68 68 69 74 72 71 68 64 65 67 65 61 61 58 59 57 56 55 56 56 54 53 52 51 50 49 48 49 47 46